Location: Lanoux
(43.1180°N, 1.4255°E)
Time: 17:08:17
(UTC+00:00)

NOAA 6 - Visible Passes

Search period start: 14 March 2026 00:00
Search period end: 24 March 2026 00:00
Orbit: 766 x 781 km, 98.6° (Epoch: 14 March)

Date Brightness Start Highest point End Pass type
(mag) Time Alt. Az. Time Alt. Az. Time Alt. Az.
14 Mar 4.2 18:49:22 10° S 18:54:30 79° WSW 18:59:40 10° NNW visible
15 Mar 6.6 19:55:54 10° SW 19:59:40 20° W 20:03:28 10° NW visible
16 Mar 5.4 19:20:15 10° S 19:25:06 41° W 19:29:58 10° NNW visible
17 Mar 4.1 18:45:33 10° SSE 18:50:42 86° WSW 18:55:52 10° NNW visible
17 Mar 7.3 20:30:06 10° W 20:30:34 10° W 20:31:01 10° W visible
18 Mar 6.5 19:51:53 10° SW 19:55:49 22° W 19:59:47 10° NW visible
19 Mar 5.2 19:16:21 10° S 19:21:16 45° W 19:26:12 10° NNW visible
20 Mar 4.1 18:41:44 10° SSE 18:46:53 88° ENE 18:52:02 10° NNW visible
20 Mar 7.1 20:25:11 10° WSW 20:26:41 11° W 20:28:12 10° WNW visible
21 Mar 6.3 19:47:52 10° SSW 19:51:58 24° W 19:56:05 10° NW visible
22 Mar 5.0 19:12:28 10° S 19:17:25 49° W 19:22:24 10° NNW visible
23 Mar 4.0 18:37:56 10° SSE 18:43:03 81° ENE 18:48:13 10° NNW visible
23 Mar 7.0 20:20:44 10° WSW 20:22:48 12° W 20:24:53 10° WNW visible
